Date,TemperatureHighF,TemperatureAvgF,TemperatureLowF,DewpointHighF,DewpointAvgF,DewpointLowF,HumidityHigh,HumidityAvg,HumidityLow,PressureMaxIn,PressureMinIn,WindSpeedMaxMPH,WindSpeedAvgMPH,GustSpeedMaxMPH,PrecipitationSumIn
2013-1-5,46.6,43.7,34.7,40.3,35.7,27.6,86,73,64,30.21,29.94,27,6,34,0.00
2013-1-6,52.2,47.8,43.0,46.7,40.0,34.2,94,75,65,30.06,29.85,22,12,25,0.00
2013-1-7,48.9,39.6,31.1,47.5,34.8,26.7,100,83,70,30.33,29.97,29,9,34,0.00
2013-1-8,52.9,43.1,34.0,39.4,33.3,25.9,78,68,60,30.30,30.18,21,8,26,0.00
2013-1-9,60.4,48.2,34.3,45.6,37.3,27.6,82,67,57,30.27,29.91,33,11,33,0.00
2013-1-10,52.5,45.9,36.1,37.7,35.4,31.8,88,68,57,30.50,30.21,22,6,27,0.00
2013-1-11,51.8,47.6,38.5,50.6,38.3,32.3,99,71,58,30.45,29.94,35,15,39,0.00
2013-1-12,59.7,53.5,49.1,59.5,53.0,49.1,100,98,84,30.03,29.97,22,10,26,0.00
2013-1-13,70.2,62.8,52.7,68.0,62.1,52.7,100,98,85,30.03,29.80,31,12,35,0.00
2013-1-14,70.9,55.3,44.6,69.3,49.7,35.4,100,82,68,30.27,29.74,25,8,35,0.00
2013-1-15,51.3,43.8,41.0,39.9,36.3,33.8,83,75,64,30.30,30.15,8,2,11,0.00
2013-1-16,48.9,45.2,42.4,44.5,41.0,35.3,100,85,70,30.12,29.74,22,8,23,0.00
2013-1-17,49.3,40.2,30.2,43.7,31.8,21.9,92,72,61,30.09,29.83,18,7,23,0.00
2013-1-18,40.3,27.4,7.9,27.4,19.9,4.1,89,74,60,30.36,30.06,32,8,38,0.00
2013-1-19,64.0,53.8,40.6,47.6,38.9,27.9,60,57,55,30.09,29.65,30,19,38,0.00
2013-1-20,60.1,44.5,20.1,47.4,31.8,9.4,82,61,56,30.00,29.44,31,13,41,0.00
2013-1-21,23.7,17.9,5.4,19.1,12.8,0.6,91,81,62,29.94,29.80,17,5,22,0.00
2013-1-22,14.2,7.1,2.3,6.5,-2.4,-6.6,77,64,61,30.12,29.80,24,9,33,0.00
2013-1-23,6.8,-0.5,-13.2,-2.8,-7.9,-21.9,82,70,63,30.18,30.09,12,4,15,0.00
2013-1-24,7.9,-2.1,-13.9,0.3,-10.6,-22.7,81,66,63,30.42,30.12,22,7,24,0.00
2013-1-25,16.9,6.6,-4.7,5.8,0.6,-7.6,87,77,61,30.36,30.03,5,1,7,0.00
2013-1-26,15.1,-0.6,-14.1,8.2,-5.3,-16.8,92,81,63,30.33,30.06,9,2,14,0.00
2013-1-27,23.7,13.7,2.8,12.6,7.1,-0.3,91,75,60,30.50,30.33,14,4,15,0.00
2013-1-28,40.5,27.8,13.8,40.5,23.9,7.0,100,86,63,30.39,29.85,31,11,37,0.00
2013-1-29,50.9,42.0,35.1,50.9,41.5,35.1,100,98,83,30.03,29.83,23,8,29,0.00
2013-1-30,64.6,56.4,49.6,58.7,52.8,48.8,100,88,76,29.83,29.21,42,20,47,0.00
2013-1-31,45.1,31.3,22.1,41.8,25.1,15.3,92,78,66,29.65,29.06,32,8,35,0.00
2013-2-1,23.2,20.3,17.4,16.7,11.9,7.0,88,70,63,30.12,29.65,20,7,29,0.00
2013-2-2,19.8,16.2,10.6,13.6,8.2,2.7,85,70,63,30.12,29.94,22,12,26,0.00
2013-2-3,28.2,17.1,3.4,18.6,11.4,-0.1,89,79,61,29.94,29.71,15,5,18,0.00
2013-2-4,25.2,19.3,16.7,14.0,9.9,7.8,76,67,62,29.88,29.77,22,6,30,0.00
2013-2-5,35.6,20.0,9.3,22.7,13.0,5.2,86,74,59,29.94,29.80,11,2,12,0.00
2013-2-6,27.9,21.6,5.2,23.7,14.1,-2.8,92,73,61,30.33,29.83,24,7,28,0.00
2013-2-7,32.4,20.2,2.1,20.0,11.3,-1.8,87,69,60,30.42,30.12,23,6,27,0.00
2013-2-8,35.1,30.8,26.4,32.9,25.7,14.8,100,82,61,30.12,29.74,24,9,34,0.00
2013-2-9,20.5,13.2,7.3,18.5,9.2,3.9,92,84,76,30.33,29.88,20,9,25,0.00
2013-2-10,37.2,24.6,8.2,25.1,16.6,5.2,93,73,59,30.39,30.03,30,8,33,0.00
2013-2-11,42.4,36.7,33.1,37.5,29.0,20.7,91,74,59,30.03,29.56,38,16,41,0.00
2013-2-12,35.6,33.1,29.5,26.6,23.7,19.6,79,68,59,29.91,29.65,21,7,31,0.00
2013-2-13,39.9,34.2,27.9,26.8,22.0,18.9,71,61,59,29.83,29.65,10,3,12,0.00
2013-2-14,41.4,34.3,25.3,33.8,24.1,19.5,100,67,58,29.88,29.71,21,6,27,0.00
2013-2-15,43.0,34.8,32.0,32.9,25.1,20.5,95,68,58,29.97,29.77,26,8,27,0.00
2013-2-16,32.0,24.0,18.5,21.6,14.0,8.2,84,66,62,29.97,29.85,12,4,16,0.00
2013-2-17,18.7,13.6,7.2,8.2,4.0,-2.1,67,65,63,30.03,29.83,28,9,34,0.00
2013-2-18,26.4,16.8,3.9,13.6,7.1,-0.9,81,65,61,30.24,29.97,26,6,27,0.00
2013-2-19,35.2,28.4,21.9,31.8,21.3,11.2,100,76,59,29.97,29.56,29,13,34,0.00
2013-2-20,21.6,16.3,12.6,12.7,7.8,4.8,84,69,63,29.94,29.71,25,8,30,0.00
2013-2-21,12.6,9.6,5.2,9.5,4.6,0.1,90,80,70,30.36,29.91,25,9,34,0.00
2013-2-22,30.6,20.8,6.6,18.7,13.3,3.0,90,74,61,30.33,30.06,42,6,48,0.00
2013-2-23,34.9,31.4,28.2,34.9,26.1,17.6,100,81,64,30.03,29.80,32,15,40,0.00
2013-2-24,29.7,26.8,24.6,29.7,22.6,18.8,100,84,71,29.97,29.80,19,5,21,0.00
2013-2-25,34.2,28.7,19.2,25.4,23.1,15.5,90,80,65,30.18,29.97,19,5,19,0.00
2013-2-26,43.2,30.3,13.5,31.4,22.6,10.8,94,74,60,30.21,29.83,22,6,24,0.00
2013-2-27,39.9,35.0,32.0,34.3,31.0,26.4,100,86,70,29.85,29.50,19,3,26,0.00
2013-2-28,40.1,34.1,31.6,34.2,31.5,28.5,100,91,71,29.62,29.50,13,3,15,0.00
2013-3-1,31.6,28.7,23.9,30.9,26.2,20.4,100,91,82,29.83,29.62,19,8,22,0.00
2013-3-2,24.1,21.9,18.9,22.2,18.1,14.6,93,85,77,29.83,29.80,18,6,19,0.00
2013-3-3,24.1,19.9,17.4,17.1,14.6,12.9,86,80,72,29.80,29.77,15,6,19,0.00
2013-3-4,26.8,23.4,20.3,21.3,17.5,14.9,85,78,72,29.94,29.80,20,9,27,0.00
2013-3-5,38.3,27.3,19.6,26.0,20.8,15.7,92,77,61,30.03,29.94,11,3,18,0.00
2013-3-6,42.6,35.5,22.6,31.8,26.3,17.6,86,70,59,30.06,29.91,16,6,24,0.00
2013-3-7,41.0,36.2,27.1,27.4,24.0,20.7,90,61,58,30.15,30.06,17,7,22,0.00
2013-3-8,39.7,30.6,21.4,26.6,23.1,16.1,93,75,59,30.30,30.12,24,10,25,0.00
2013-3-9,51.6,32.7,16.2,36.5,23.7,13.8,94,71,56,30.33,30.21,11,2,11,0.00
2013-3-10,53.4,44.9,33.3,37.7,30.8,20.9,60,57,55,30.21,30.00,32,13,35,0.00
2013-3-11,48.4,46.0,43.2,36.6,32.0,29.4,67,58,57,30.03,29.74,34,19,49,0.00
2013-3-12,49.6,39.6,30.6,46.4,36.0,23.5,100,88,67,29.83,29.68,37,10,52,0.00
2013-3-13,35.4,29.1,22.6,27.5,19.8,11.6,94,68,59,29.85,29.74,26,5,27,0.00
2013-3-14,22.6,14.8,10.8,11.6,5.6,2.9,70,67,62,29.94,29.83,29,13,38,0.00
2013-3-15,26.1,23.6,16.7,16.1,13.5,6.3,66,65,62,29.94,29.65,20,8,26,0.00
2013-3-16,25.9,22.3,17.6,16.1,13.0,9.6,74,67,62,29.91,29.77,16,4,20,0.00
2013-3-17,25.0,18.5,15.1,13.8,9.2,5.6,74,66,62,30.27,29.91,19,6,23,0.00
2013-3-18,29.7,21.8,4.1,20.8,14.0,-3.4,97,72,61,30.33,29.77,31,9,45,0.00
2013-3-19,39.6,25.8,18.1,28.8,19.8,9.2,94,78,59,29.77,29.62,33,9,39,0.00
2013-3-20,19.6,16.4,14.4,13.1,8.6,4.8,84,71,63,29.77,29.74,13,4,17,0.00
2013-3-21,25.0,16.8,1.2,13.8,8.2,-3.0,86,69,62,29.77,29.65,16,6,21,0.00
2013-3-22,24.1,20.4,17.2,17.1,14.1,11.8,86,76,62,29.83,29.65,19,7,26,0.00
2013-3-23,30.7,24.7,21.2,18.9,15.9,13.7,87,69,61,29.91,29.80,23,10,29,0.00
2013-3-24,35.1,26.4,17.8,22.1,16.0,11.1,83,65,59,29.91,29.68,13,5,18,0.00
2013-3-25,37.9,29.8,21.4,24.9,18.2,12.6,73,62,59,29.68,29.50,13,4,19,0.00
2013-3-26,39.0,29.7,24.4,25.9,20.4,14.1,84,68,59,29.85,29.62,16,5,20,0.00
2013-3-27,40.8,29.6,24.4,30.7,21.2,13.6,97,71,58,29.97,29.83,20,6,34,0.00
2013-3-28,38.1,30.2,25.9,27.8,24.1,20.2,100,79,59,30.12,29.94,15,6,18,0.00
2013-3-29,39.2,31.3,22.5,26.2,22.9,18.5,86,71,59,30.12,30.03,13,4,19,0.00
2013-3-30,48.6,33.6,19.9,33.4,22.8,15.0,85,65,57,30.12,30.00,14,3,17,0.00
2013-3-31,49.1,36.3,24.4,36.0,27.3,14.0,94,71,57,30.03,29.62,43,11,45,0.00
2013-4-1,36.9,28.4,21.0,36.0,21.5,10.4,100,76,61,29.85,29.53,24,9,33,0.00
2013-4-2,21.0,17.9,16.2,10.4,7.4,5.8,63,63,63,30.00,29.85,22,7,28,0.00
2013-4-3,27.5,19.6,16.2,15.5,8.9,5.8,63,62,61,30.27,30.00,22,8,29,0.00
2013-4-4,48.6,33.4,12.7,34.0,21.3,6.9,79,61,57,30.30,29.88,25,11,31,0.00
2013-4-5,39.2,30.7,22.3,26.1,18.6,11.2,62,60,59,30.00,29.83,26,11,31,0.00
2013-4-6,40.3,27.8,15.4,26.8,16.2,5.1,65,61,58,30.27,30.03,16,6,20,0.00
2013-4-7,58.1,42.5,32.2,43.0,29.0,19.9,65,59,55,30.06,29.74,45,19,52,0.00
2013-4-8,56.5,41.3,29.1,41.6,29.4,21.5,75,63,56,30.06,29.80,19,3,23,0.00
2013-4-9,55.6,45.1,35.2,40.9,35.1,28.7,100,69,56,30.03,29.74,22,7,30,0.00
2013-4-10,39.6,38.5,36.5,39.6,38.5,36.5,100,100,100,29.91,29.85,9,4,13,0.00
2013-4-11,34.3,28.7,25.9,34.3,28.2,23.3,100,98,83,30.03,29.85,15,6,15,0.00
2013-4-12,38.8,33.9,27.5,38.8,33.3,27.5,100,98,87,29.91,29.59,37,10,44,0.00
2013-4-13,45.1,36.4,31.1,35.6,31.3,28.5,99,82,65,29.88,29.74,26,7,28,0.00
2013-4-14,44.1,34.4,26.2,32.7,26.7,22.0,100,74,58,30.15,29.88,15,5,22,0.00
2013-4-15,68.4,47.8,25.9,51.6,35.2,22.3,87,62,55,30.18,30.03,31,13,34,0.00
2013-4-16,60.4,51.3,41.9,52.5,44.5,33.7,100,78,61,30.12,29.91,39,20,44,0.00
2013-4-17,55.0,42.2,26.8,39.9,32.0,26.4,100,68,55,30.27,30.12,20,5,22,0.00
2013-4-18,65.1,52.4,33.4,48.5,40.3,28.0,81,64,55,30.18,29.80,47,21,58,0.00
2013-4-19,68.7,55.4,35.2,54.8,47.4,29.7,100,75,60,29.80,29.38,45,21,57,0.00
2013-4-20,41.2,32.8,23.9,29.7,23.0,13.1,85,67,58,30.30,29.68,27,8,32,0.00
2013-4-21,42.1,27.9,19.8,28.4,18.6,11.4,85,68,58,30.56,30.30,14,4,21,0.00
2013-4-22,52.7,36.9,19.9,37.3,24.9,13.5,83,62,55,30.53,30.33,19,6,28,0.00
2013-4-23,54.0,40.9,25.9,39.5,28.9,18.6,81,63,55,30.33,29.97,23,10,30,0.00
2013-4-24,63.0,44.7,31.8,47.5,37.0,26.7,91,76,56,29.97,29.62,32,14,41,0.00
2013-4-25,49.6,36.2,25.9,34.6,25.6,18.6,83,66,56,30.21,29.88,22,6,25,0.00
2013-4-26,45.9,33.9,23.2,31.5,26.0,18.8,100,74,57,30.39,30.21,12,4,18,0.00
2013-4-27,59.2,42.2,20.8,44.0,31.3,18.0,93,67,56,30.39,30.21,12,4,14,0.00
2013-4-28,64.2,48.5,32.4,48.0,35.5,22.5,81,61,56,30.21,30.00,33,10,34,0.00
2013-4-29,48.2,42.4,37.8,39.6,35.7,30.6,90,77,68,30.06,30.00,30,14,38,0.00
2013-4-30,57.6,48.4,42.1,44.5,40.2,37.5,86,74,57,30.18,30.06,28,12,31,0.00
2013-5-1,72.5,53.5,36.1,54.4,40.0,26.9,78,61,54,30.33,30.18,19,6,19,0.00
2013-5-2,70.0,52.7,38.1,52.6,38.1,25.1,69,58,54,30.36,30.21,16,5,20,0.00
2013-5-3,66.2,50.7,35.2,49.6,37.2,28.5,78,60,55,30.27,30.15,22,5,26,0.00
2013-5-4,65.1,48.9,29.7,49.0,34.9,18.6,65,58,56,30.24,30.09,13,4,17,0.00
2013-5-5,66.0,52.3,34.7,49.4,38.6,26.5,72,60,55,30.15,30.03,13,5,16,0.00
2013-5-6,65.1,49.7,30.4,48.5,36.9,22.5,73,62,56,30.12,29.97,15,5,18,0.00
2013-5-7,68.5,51.7,34.5,51.8,40.5,32.4,100,67,55,30.06,29.94,11,3,13,0.00
2013-5-8,55.2,48.3,40.6,48.2,42.3,34.7,100,80,59,30.00,29.85,16,3,20,0.00
2013-5-9,60.3,48.1,39.0,46.2,42.3,39.0,100,82,56,29.88,29.83,13,5,18,0.00
2013-5-10,64.2,51.6,36.7,52.3,44.6,36.7,100,80,56,29.91,29.71,29,8,35,0.00
2013-5-11,54.9,49.3,39.2,53.4,46.9,39.2,100,92,70,29.71,29.65,22,8,33,0.00
2013-5-12,48.4,40.0,30.7,41.4,31.8,23.3,100,74,58,29.83,29.65,25,6,38,0.00
2013-5-13,40.3,32.1,27.9,28.3,22.9,19.2,83,69,58,30.03,29.83,20,5,23,0.00
2013-5-14,51.4,36.3,23.2,36.0,26.2,20.5,94,68,56,30.09,29.94,16,4,16,0.00
2013-5-15,73.4,52.4,27.9,55.8,39.2,19.4,88,62,54,29.94,29.50,32,11,39,0.00
2013-5-16,72.0,56.7,41.9,54.4,42.2,29.9,74,59,54,29.88,29.68,26,7,32,0.00
2013-5-17,57.6,43.3,26.2,42.5,33.4,25.2,100,70,57,30.15,29.88,16,5,21,0.00
2013-5-18,60.6,46.3,27.1,44.8,36.8,26.9,100,71,56,30.21,30.12,15,5,19,0.00
2013-5-19,55.6,49.7,43.2,48.2,44.6,38.5,89,83,76,30.12,30.00,27,13,40,0.00
2013-5-20,80.2,64.7,52.3,61.0,54.6,46.9,90,73,52,30.00,29.83,21,6,30,0.00
2013-5-21,80.2,66.3,57.0,61.9,58.9,55.8,100,79,52,29.88,29.74,20,7,24,0.00
2013-5-24,39.0,37.9,37.0,38.8,37.6,35.9,100,99,93,30.03,29.97,23,13,28,0.00
2013-5-25,52.5,46.9,39.0,39.5,36.8,33.7,86,68,58,30.06,30.00,26,12,32,0.00
2013-5-26,61.7,50.0,41.2,45.9,38.2,32.7,84,64,54,30.12,29.97,26,10,30,0.00
2013-5-27,69.3,53.4,37.4,51.9,39.6,30.9,82,60,54,30.18,30.06,16,5,19,0.00
2013-5-28,55.4,49.2,37.8,51.8,43.0,30.1,100,80,58,30.12,29.97,18,8,26,0.00
2013-5-29,83.1,64.8,51.6,66.5,60.6,51.6,100,89,54,29.97,29.85,21,6,27,0.00
2013-5-30,89.6,74.4,58.6,70.2,64.6,58.5,100,75,50,30.06,29.97,12,4,18,0.00
2013-5-31,92.5,76.4,61.0,70.8,64.4,57.9,100,70,50,30.06,29.88,14,5,24,0.00
2013-6-1,83.5,71.4,56.8,65.1,60.5,55.6,100,71,52,29.91,29.77,26,9,34,0.00
2013-6-2,77.5,66.8,55.4,62.6,57.8,48.5,100,74,53,29.80,29.68,19,7,26,0.00
2013-6-3,57.9,51.8,44.4,50.8,42.0,38.0,87,70,57,29.91,29.77,13,5,16,0.00
2013-6-4,61.0,56.9,36.5,45.2,42.0,31.2,81,57,56,30.09,29.91,18,7,23,0.00
2013-6-5,52.0,38.2,36.5,39.1,32.2,31.2,81,79,61,30.15,30.00,12,2,13,0.00
2013-6-6,51.3,48.5,46.4,50.9,44.5,39.0,100,87,68,30.03,29.83,19,5,26,0.00
2013-6-7,58.3,54.9,51.1,57.9,54.4,50.3,100,98,87,29.83,29.71,20,6,23,0.00
2013-6-8,64.6,58.5,53.8,61.7,57.4,53.8,100,97,82,30.00,29.71,13,3,15,0.00
2013-6-9,83.8,68.4,54.1,66.2,60.1,54.1,100,77,51,30.12,30.00,12,3,15,0.00
2013-6-10,70.5,68.4,65.1,68.7,64.6,56.3,100,88,69,30.09,29.71,17,6,23,0.00
2013-6-11,72.5,69.5,66.7,72.0,67.2,63.2,100,92,80,29.74,29.59,21,7,25,0.00
2013-6-12,69.6,68.1,64.2,63.2,61.4,59.3,93,79,77,29.85,29.74,16,6,20,0.00
2013-6-13,68.0,66.2,63.7,66.9,63.3,60.1,100,91,77,29.77,29.50,17,6,20,0.00
2013-6-14,83.7,71.0,59.7,67.8,64.6,59.7,100,82,56,29.88,29.68,20,6,24,0.00
2013-6-15,85.6,72.8,58.3,68.4,61.2,52.2,100,70,51,29.97,29.88,16,4,19,0.00
2013-6-16,73.6,68.6,60.1,70.1,59.8,54.1,100,74,56,29.91,29.68,22,8,30,0.00
2013-6-17,86.0,73.2,63.0,65.9,62.4,59.3,100,71,51,29.88,29.77,21,5,24,0.00
2013-6-18,73.0,64.0,50.7,65.1,57.2,48.2,100,80,56,29.94,29.83,15,5,15,0.00
2013-6-19,72.5,58.3,44.4,55.9,49.2,39.4,100,75,54,30.12,29.94,14,3,20,0.00
2013-6-20,81.3,63.3,40.3,62.0,51.6,39.9,100,69,52,30.18,30.12,10,3,17,0.00
2013-6-21,80.8,67.7,46.6,61.5,54.4,43.4,100,65,52,30.21,30.12,9,2,11,0.00
2013-6-22,79.5,68.8,54.7,60.4,55.6,47.5,89,64,52,30.12,29.97,22,9,25,0.00
2013-6-23,86.0,69.4,61.7,66.7,59.7,55.6,100,73,51,30.06,29.97,20,10,26,0.00
2013-6-24,85.8,73.3,61.5,66.7,60.7,55.6,81,66,51,30.00,29.91,15,6,21,0.00
2013-6-25,78.3,70.5,57.0,66.2,61.0,55.0,100,74,61,29.94,29.74,16,5,22,0.00
2013-6-26,81.1,69.1,61.0,64.5,60.9,56.6,100,76,55,29.80,29.74,9,2,18,0.00
2013-6-27,84.0,70.0,58.3,68.5,63.2,58.3,100,82,54,29.77,29.65,12,3,13,0.00
2013-6-28,75.0,68.6,64.0,70.2,65.8,63.3,100,91,71,29.56,29.44,14,4,15,0.00
2013-6-29,83.7,73.2,64.8,77.6,70.1,64.8,100,91,63,29.65,29.44,18,3,20,0.00
2013-6-30,96.8,81.6,68.4,80.2,73.8,68.4,100,80,56,29.85,29.65,11,3,14,0.00
2013-7-1,83.5,80.1,75.7,83.5,80.1,75.8,100,100,100,29.94,29.85,7,1,7,0.00
2013-7-2,102.4,91.0,79.0,91.5,85.4,79.0,100,85,60,30.06,29.94,17,5,22,0.00
2013-7-3,100.6,95.1,87.1,88.5,84.8,83.1,100,75,58,30.12,30.03,18,7,22,0.00
2013-7-4,100.6,91.4,81.9,83.1,81.2,78.8,100,73,58,30.12,30.06,18,5,22,0.00
2013-7-5,89.2,86.8,80.6,80.7,78.0,72.4,98,75,60,30.09,30.00,19,8,22,0.00
2013-7-6,72.7,72.7,72.5,72.7,72.7,72.5,100,100,100,30.00,30.00,3,3,5,0.00
2013-7-7,91.6,86.4,71.8,73.1,69.9,69.0,100,60,52,29.97,29.88,10,4,14,0.00
2013-7-8,85.8,75.1,68.4,71.6,67.9,64.4,100,80,56,30.00,29.91,11,4,14,0.00
2013-7-9,90.7,81.1,70.9,72.8,69.3,66.4,100,69,52,30.00,29.88,15,6,19,0.00
2013-7-10,87.4,77.1,70.0,75.1,70.8,62.2,100,82,60,29.88,29.71,22,11,24,0.00
2013-7-11,79.2,70.3,58.5,63.9,59.7,56.0,100,70,55,29.94,29.77,14,5,17,0.00
2013-7-12,80.2,66.2,56.8,63.9,59.0,56.8,100,81,52,30.12,29.97,15,2,16,0.00
2013-7-13,81.1,69.7,59.4,68.7,63.6,57.2,100,82,60,30.21,30.09,15,3,17,0.00
2013-7-14,90.9,79.0,65.8,70.7,68.5,65.8,100,73,50,30.27,30.18,17,3,19,0.00
2013-7-15,86.9,80.8,68.4,72.4,66.7,62.1,100,63,53,30.24,30.15,14,4,16,0.00
2013-7-16,84.0,76.6,61.3,66.3,62.7,59.1,100,64,51,30.21,30.15,12,3,17,0.00
2013-7-17,88.7,76.5,57.2,69.2,64.3,57.2,100,70,50,30.18,30.03,13,3,15,0.00
2013-7-18,87.3,87.3,87.3,66.4,66.4,66.4,50,50,50,30.03,29.91,15,5,17,0.00
2013-7-19,87.3,79.5,66.2,68.0,64.7,60.0,84,62,50,29.91,29.71,25,9,30,0.00
2013-7-20,77.0,62.0,52.5,63.5,56.3,50.5,100,83,58,29.83,29.68,19,4,23,0.00
2013-7-21,75.6,62.7,50.2,60.7,53.1,50.2,100,74,53,29.94,29.85,12,3,15,0.00
2013-7-22,80.2,63.6,52.2,63.8,58.7,51.0,100,87,54,29.94,29.77,14,2,25,0.00
2013-7-23,72.0,66.7,60.8,66.6,62.5,60.8,100,87,76,29.77,29.59,14,3,17,0.00
2013-7-24,70.7,56.7,45.5,62.8,50.5,42.7,97,80,66,29.97,29.62,16,6,20,0.00
2013-7-25,73.0,56.5,40.6,55.3,47.9,40.3,100,76,54,30.06,29.97,13,3,16,0.00
2013-7-26,75.7,59.4,43.5,57.4,50.9,43.5,100,77,53,30.06,29.97,12,3,13,0.00
2013-7-27,75.7,68.1,59.9,65.1,58.4,53.7,100,74,53,29.94,29.83,21,8,23,0.00
2013-7-28,73.9,63.3,58.1,62.4,59.6,56.0,100,89,56,29.88,29.83,14,6,20,0.00
2013-7-29,73.6,62.1,50.5,59.9,53.3,49.7,100,76,54,30.06,29.94,16,4,18,0.00
2013-7-30,73.8,61.6,51.6,58.5,54.8,51.6,100,80,56,30.15,30.06,11,3,15,0.00
2013-7-31,79.3,65.0,50.0,60.3,55.5,50.0,100,75,52,30.12,29.94,13,3,15,0.00
2013-8-1,75.0,61.9,55.2,63.2,57.9,52.9,100,88,63,29.94,29.74,21,5,22,0.00
2013-8-2,77.7,63.5,54.1,60.3,56.5,53.4,100,81,53,29.85,29.80,14,3,19,0.00
2013-8-3,75.0,64.3,51.6,58.8,54.4,48.1,100,72,53,29.85,29.77,18,6,22,0.00
2013-8-4,67.5,58.1,53.4,55.4,50.0,43.3,100,76,55,29.97,29.85,23,7,26,0.00
2013-8-5,70.3,54.8,40.8,52.9,45.8,39.1,100,74,54,30.06,29.94,13,4,20,0.00
2013-8-6,71.8,56.8,42.6,53.9,47.5,42.4,100,74,54,30.03,29.97,21,5,22,0.00
2013-8-7,64.9,59.2,52.9,57.8,52.4,47.8,90,78,67,30.00,29.91,26,12,34,0.00
2013-8-8,81.3,72.8,63.3,66.9,62.5,58.1,95,71,54,29.94,29.88,17,6,18,0.00
2013-8-9,76.6,67.5,61.9,70.8,65.4,59.0,100,93,73,29.88,29.80,15,4,18,0.00
2013-8-10,75.4,64.3,47.5,58.8,53.7,43.8,100,70,53,30.03,29.88,15,5,20,0.00
2013-8-11,75.2,58.6,45.3,56.9,50.4,45.3,100,78,53,30.06,30.00,12,4,14,0.00
2013-8-12,75.9,61.0,49.8,57.4,53.1,49.6,100,78,53,30.00,29.85,12,3,12,0.00
2013-8-13,73.6,59.7,50.2,60.3,54.0,43.9,100,82,59,29.83,29.68,15,6,21,0.00
2013-8-14,61.9,51.8,45.1,50.8,43.8,39.6,97,75,56,30.00,29.77,22,6,25,0.00
2013-8-15,69.1,54.7,45.5,51.8,45.6,40.2,100,73,54,30.09,30.00,15,4,18,0.00
2013-8-16,70.5,53.5,41.2,53.1,46.6,41.2,100,81,54,30.18,30.06,12,4,15,0.00
2013-8-17,75.9,58.1,40.5,57.6,49.4,40.5,100,76,53,30.27,30.18,8,3,12,0.00
2013-8-18,71.4,57.4,47.1,53.9,50.1,46.5,100,80,54,30.21,30.06,10,4,12,0.00
2013-8-19,75.2,59.4,48.4,56.3,51.7,47.9,100,78,54,30.09,29.97,15,3,15,0.00
2013-8-20,76.8,59.1,46.0,58.1,51.6,45.7,100,80,53,30.09,30.00,12,4,15,0.00
2013-8-21,79.5,61.5,47.1,60.2,53.2,47.1,100,78,52,30.15,30.00,12,4,14,0.00
2013-8-22,77.9,62.9,49.8,60.8,55.8,48.3,100,81,52,30.00,29.83,20,5,30,0.00
2013-8-23,68.7,56.2,45.0,59.2,50.5,44.5,100,83,55,30.15,29.91,17,5,19,0.00
2013-8-24,71.8,55.2,39.4,54.3,46.9,39.4,100,77,54,30.30,30.15,9,2,13,0.00
2013-8-25,74.5,58.0,41.7,56.4,48.4,41.7,100,74,53,30.33,30.09,17,6,23,0.00
2013-8-26,67.6,59.8,55.0,61.2,53.6,45.0,100,81,59,30.15,29.85,17,6,19,0.00
2013-8-27,79.7,65.0,55.0,66.6,61.6,54.9,100,90,61,29.91,29.85,12,1,14,0.00
2013-8-28,86.0,70.5,60.6,75.6,67.3,60.6,100,91,60,29.88,29.83,10,1,15,0.00
2013-8-29,90.1,73.2,61.5,79.2,68.1,61.5,100,86,52,30.00,29.88,12,3,14,0.00
2013-8-30,89.4,71.4,58.8,73.0,64.9,58.8,100,83,50,29.97,29.77,13,3,15,0.00
2013-8-31,83.1,72.1,65.8,74.1,69.5,65.5,100,92,65,29.83,29.71,12,4,16,0.00
2013-9-1,86.4,72.6,64.0,71.9,67.7,64.0,100,87,58,29.83,29.74,10,1,11,0.00
2013-9-2,85.6,70.9,63.0,73.9,67.3,63.0,100,90,61,29.77,29.62,19,6,22,0.00
2013-9-3,67.5,62.4,56.8,65.5,58.2,54.3,100,87,66,29.88,29.74,18,3,20,0.00
2013-9-4,78.6,64.7,50.9,59.5,54.8,50.2,100,73,52,29.94,29.88,14,4,22,0.00
2013-9-5,63.9,54.3,36.7,59.2,45.9,33.1,100,75,56,30.15,29.91,18,6,21,0.00
2013-9-6,63.1,46.3,32.7,47.2,39.9,32.7,100,82,56,30.24,30.06,11,3,12,0.00
2013-9-7,61.0,49.6,38.3,52.5,45.3,38.3,100,86,56,30.09,29.85,12,5,14,0.00
2013-9-8,58.8,50.4,35.4,54.5,45.1,35.2,100,84,57,30.09,29.80,20,7,26,0.00
2013-9-9,66.7,49.4,31.3,51.0,41.7,31.3,100,77,55,30.15,30.00,27,9,30,0.00
2013-9-10,79.7,66.0,55.4,68.5,60.7,47.4,100,84,65,30.06,29.94,23,12,30,0.00
2013-9-11,88.9,74.1,62.2,72.0,67.6,60.6,100,83,52,30.06,29.91,18,9,26,0.00
2013-9-12,74.5,63.2,58.6,65.6,61.6,57.0,100,95,66,29.88,29.71,22,5,22,0.00
2013-9-13,55.4,48.9,43.7,55.4,48.8,43.7,100,100,87,29.91,29.68,17,9,20,0.00
2013-9-14,54.9,46.8,39.6,48.4,44.8,39.6,100,93,70,30.09,29.91,14,5,20,0.00
2013-9-15,66.4,50.4,37.2,54.2,44.9,37.2,100,84,55,30.15,30.03,18,6,22,0.00
2013-9-16,57.2,49.6,35.6,54.3,48.1,35.6,100,95,76,30.33,30.03,15,5,22,0.00
2013-9-17,66.7,46.6,29.5,50.1,40.5,29.5,100,83,55,30.45,30.30,9,2,12,0.00
2013-9-18,70.9,51.1,37.8,53.4,44.4,37.8,100,81,54,30.27,30.12,16,6,19,0.00
2013-9-19,75.4,54.3,40.5,56.8,46.7,40.5,100,78,53,30.12,30.00,11,5,12,0.00
2013-9-20,70.3,56.0,42.6,55.7,48.5,42.6,100,78,57,30.03,29.85,26,10,30,0.00
2013-9-21,60.4,53.3,48.4,55.0,49.7,46.5,100,88,73,29.85,29.59,38,14,41,0.00
2013-9-22,48.9,43.0,39.4,48.7,39.5,33.7,100,88,69,29.94,29.65,16,6,21,0.00
2013-9-23,47.1,38.9,31.6,37.0,34.4,31.2,100,85,65,30.09,29.94,16,5,19,0.00
2013-9-24,57.7,39.8,25.2,42.8,35.3,25.2,100,86,57,30.09,29.97,14,4,18,0.00
2013-9-25,63.5,43.8,28.9,48.5,38.4,28.6,100,84,56,29.97,29.91,13,4,18,0.00
2013-9-26,64.4,46.4,31.6,49.8,41.2,31.6,100,85,56,30.09,29.97,12,4,15,0.00
2013-9-27,65.3,47.1,34.0,49.2,42.2,34.0,100,86,55,30.24,30.09,11,3,12,0.00
2013-9-28,64.6,48.0,34.7,49.2,43.2,34.7,100,86,56,30.30,30.18,11,5,19,0.00
2013-9-29,63.1,50.1,36.5,47.1,42.9,36.5,100,79,56,30.18,30.03,23,6,29,0.00
2013-9-30,70.2,49.7,38.8,52.8,44.6,38.8,100,85,54,30.03,29.94,12,5,12,0.00
2013-10-1,67.6,50.6,41.4,54.5,46.5,41.4,100,88,55,30.00,29.91,11,3,12,0.00
2013-10-2,68.5,54.1,42.1,55.4,48.3,38.4,100,82,57,30.03,29.91,15,5,20,0.00
2013-10-3,66.4,49.5,34.3,49.7,43.0,34.3,100,81,55,30.12,30.00,7,2,10,0.00
2013-10-4,67.5,56.5,49.1,61.1,55.1,42.2,100,95,74,30.03,29.97,11,3,12,0.00
2013-10-5,65.5,58.2,55.0,64.4,58.2,55.0,100,100,100,30.06,30.00,10,1,11,0.00
2013-10-6,84.4,73.2,61.9,80.6,71.6,61.9,100,95,76,30.00,29.85,30,9,30,0.00
2013-10-7,77.4,66.9,54.5,73.4,63.5,46.5,100,89,67,29.97,29.62,32,13,40,0.00
2013-10-8,66.2,53.9,41.9,54.0,48.5,41.9,100,84,55,30.33,29.97,13,3,19,0.00
2013-10-9,72.0,50.6,36.7,54.1,44.8,36.7,100,84,54,30.39,30.27,8,3,10,0.00
2013-10-10,62.1,46.7,35.1,48.8,42.4,34.9,100,87,56,30.27,30.12,8,2,9,0.00
2013-10-11,69.6,49.7,37.8,51.9,42.3,37.3,100,78,55,30.12,30.06,12,2,13,0.00
2013-10-12,70.7,49.1,34.0,53.3,41.5,32.4,100,78,54,30.21,30.09,11,3,13,0.00
2013-10-13,60.8,50.6,42.1,48.2,42.9,40.0,100,76,59,30.27,30.21,23,9,25,0.00
2013-10-14,51.1,45.9,42.6,46.9,43.2,39.0,100,91,66,30.27,30.24,17,6,21,0.00
2013-10-15,62.2,48.5,38.3,51.5,45.3,38.3,100,90,65,30.24,30.00,16,2,22,0.00
2013-10-16,56.1,50.6,47.1,50.9,44.9,38.0,100,82,66,30.00,29.80,22,12,26,0.00
2013-10-17,60.1,48.5,38.3,50.2,44.1,38.3,100,87,56,29.85,29.65,14,4,18,0.00
2013-10-18,52.0,43.5,33.8,44.2,38.8,33.5,100,85,58,29.91,29.65,22,6,27,0.00
2013-10-19,54.0,43.7,35.1,42.4,37.3,33.2,100,80,58,29.91,29.65,26,10,30,0.00
2013-10-20,44.8,36.4,28.0,36.5,31.9,28.0,100,84,62,29.97,29.71,21,6,25,0.00
2013-10-21,54.9,44.4,30.6,39.7,33.5,29.9,100,66,56,30.00,29.80,30,14,31,0.00
2013-10-22,44.2,35.5,25.7,34.0,28.1,20.7,100,75,59,29.83,29.71,20,6,23,0.00
2013-10-23,37.9,28.6,22.8,29.2,24.6,20.3,100,86,62,29.80,29.62,14,4,26,0.00
2013-10-24,36.7,27.3,18.3,27.1,22.1,18.3,100,83,59,29.94,29.74,22,8,27,0.00
2013-10-25,36.9,27.9,23.5,30.5,26.0,23.5,100,93,67,30.12,29.94,18,6,22,0.00
2013-10-26,34.5,29.4,26.1,27.6,22.6,18.5,100,76,60,30.09,29.80,34,15,40,0.00
2013-10-27,37.2,30.9,25.7,28.4,24.2,19.4,100,77,59,30.06,29.80,17,6,23,0.00
2013-10-28,41.5,29.6,14.0,30.1,22.0,13.1,100,74,59,30.33,30.03,16,7,23,0.00
2013-10-29,36.7,21.6,10.0,23.7,15.3,10.0,100,79,59,30.45,30.27,8,2,10,0.00
2013-10-30,45.1,30.5,24.3,34.9,24.6,15.6,100,80,60,30.27,30.18,11,3,12,0.00
2013-11-3,25.7,19.7,10.2,25.3,15.3,7.1,100,83,62,30.50,29.88,18,6,24,0.00
2013-11-4,34.9,20.4,6.8,22.1,13.0,4.8,100,75,59,30.62,30.47,24,3,28,0.00
2013-11-5,43.9,33.2,23.2,29.7,21.4,12.1,71,62,57,30.53,30.36,28,16,32,0.00
2013-11-6,50.4,42.1,34.3,39.1,34.3,27.5,92,74,59,30.36,29.85,38,19,39,0.00
2013-11-7,46.9,32.7,23.9,44.8,31.0,19.7,100,93,77,29.94,29.80,24,8,30,0.00
2013-11-8,27.5,24.6,21.6,25.0,19.4,17.4,100,80,73,30.18,30.03,21,8,26,0.00
2013-11-9,34.0,28.0,21.4,32.0,21.1,18.8,100,76,60,30.21,29.83,28,9,34,0.00
2013-11-10,37.4,30.8,23.4,32.4,25.4,22.2,100,81,62,30.09,29.80,28,9,34,0.00
2013-11-11,32.0,26.3,19.2,28.0,22.8,19.2,100,87,68,30.18,29.94,22,10,26,0.00
2013-11-12,19.2,14.5,10.4,19.2,13.0,9.5,100,94,75,32.31,30.06,18,8,20,0.00
2013-11-13,24.1,14.7,3.7,13.5,8.9,1.5,100,79,62,32.31,32.31,26,8,31,0.00
2013-11-14,39.0,27.2,18.3,25.9,15.6,7.8,63,61,59,32.31,30.27,29,12,35,0.00
2013-11-15,45.1,32.1,19.6,30.8,19.8,8.9,63,60,57,32.31,30.09,20,8,23,0.00
2013-11-16,49.3,35.7,23.0,35.6,24.7,17.3,83,64,57,30.50,30.15,19,7,22,0.00
2013-11-17,46.4,40.9,34.5,46.2,39.8,27.1,100,96,72,30.15,29.50,44,19,58,0.00
2013-11-18,47.3,36.5,23.5,47.1,27.8,13.5,100,71,57,32.07,29.44,42,12,46,0.00
2013-11-19,23.4,19.9,15.6,21.0,15.0,8.8,100,81,67,32.31,32.28,21,8,26,0.00
2013-11-20,32.4,15.8,2.3,20.0,8.2,0.5,100,72,60,32.31,32.31,10,2,13,0.00
2013-11-21,32.7,23.9,13.8,23.8,14.3,3.9,84,66,60,32.31,32.31,38,13,39,0.00
2013-11-22,35.6,30.4,22.6,35.6,30.4,22.6,100,100,86,32.31,32.31,18,8,31,0.00
2013-11-23,24.8,17.1,6.1,22.4,13.1,-1.2,100,85,62,32.31,32.31,27,10,37,0.00
2013-11-24,8.2,4.9,3.6,5.9,3.6,-0.7,100,95,68,19.02,19.02,22,8,24,0.00
2013-11-25,19.4,11.2,-2.7,11.2,5.5,-3.4,100,79,63,32.31,19.02,30,11,38,0.00
2013-11-26,24.8,19.3,14.4,24.8,17.4,6.8,100,93,63,32.31,21.59,30,10,34,0.00
2013-11-27,24.4,19.7,10.2,24.4,19.5,9.3,100,100,94,32.31,22.83,15,2,23,0.00
2013-11-28,15.1,9.1,3.4,9.9,5.4,-0.1,100,85,68,19.02,19.02,20,7,26,0.00
2013-11-29,18.3,7.8,-5.3,10.2,3.7,-10.1,100,84,63,19.02,19.02,14,2,19,0.00
2013-11-30,19.2,8.9,-7.2,12.1,1.4,-12.0,90,72,63,19.02,19.02,35,13,41,0.00
2013-12-1,28.2,22.0,17.8,23.2,17.0,11.9,100,81,69,19.02,19.02,24,9,30,0.00
2013-12-2,30.9,25.9,22.8,25.8,24.0,22.8,100,93,81,19.02,19.02,10,4,13,0.00
2013-12-3,32.4,23.5,16.0,26.4,21.2,14.6,100,92,68,22.65,19.02,9,2,12,0.00
2013-12-4,40.6,29.4,16.7,34.8,26.9,16.7,100,91,70,32.31,19.02,17,6,19,0.00
2013-12-5,51.3,43.7,36.5,48.8,42.2,34.4,100,94,78,32.31,28.79,28,13,34,0.00
2013-12-6,37.2,28.0,25.2,37.0,25.5,20.5,100,90,82,32.31,25.90,14,5,19,0.00
2013-12-7,23.2,19.1,16.7,16.1,8.9,6.3,75,64,63,19.02,19.02,12,6,19,0.00
2013-12-8,24.1,16.9,8.6,14.8,8.2,2.4,90,68,62,19.02,19.02,13,4,18,0.00
2013-12-9,32.7,26.0,17.2,29.1,22.0,13.8,92,85,66,19.02,19.02,28,13,40,0.00
2013-12-10,25.9,18.0,11.8,16.9,10.7,2.0,85,73,64,19.02,19.02,13,6,26,0.00
2013-12-11,18.5,12.9,4.6,12.3,6.6,-2.1,90,76,64,19.02,19.02,14,5,23,0.00
2013-12-12,10.6,6.5,0.5,2.3,-0.6,-5.3,87,73,63,19.02,19.02,22,8,26,0.00
2013-12-13,14.2,8.5,1.0,10.3,3.4,-2.2,87,79,70,19.02,19.02,20,6,27,0.00
2013-12-14,13.3,5.1,-2.6,11.2,1.4,-5.9,92,84,76,19.02,19.02,19,4,26,0.00
2013-12-15,18.9,14.6,10.6,17.5,12.5,8.5,96,91,87,19.02,19.02,17,5,24,0.00
2013-12-16,10.8,3.9,-9.4,5.6,-1.5,-13.1,86,78,65,19.02,19.02,22,5,27,0.00
2013-12-17,15.6,5.6,-13.5,11.9,2.2,-17.2,90,85,83,19.02,19.02,26,8,27,0.00
2013-12-18,25.0,18.1,6.4,14.4,11.8,3.7,91,77,62,19.02,19.02,16,6,22,0.00
2013-12-19,36.9,26.3,18.1,23.9,16.2,8.7,81,66,59,19.02,19.02,23,8,28,0.00
2013-12-20,39.7,35.0,29.8,39.6,29.1,21.8,100,80,59,19.02,19.02,21,10,22,0.00
2013-12-21,49.1,44.8,37.9,49.1,44.8,37.9,100,100,94,19.02,19.02,20,7,23,0.00
2013-12-22,60.6,39.9,32.9,56.0,39.5,32.9,100,99,78,19.02,19.02,29,6,42,0.00
2013-12-23,40.1,40.1,40.1,40.1,40.1,40.1,100,100,100,19.02,19.02,7,6,9,0.00